Home   Weather   Choloma   Past weeks
Flag for Honduras

Past Weather in Choloma, Honduras — Yesterday and Last 2 Weeks

Now
91 °F

Scattered clouds.


Feels Like: 100 °F
Forecast: N/A
Wind: 13 mph from Northeast

Location: La Mesa San Pedro Sula

Current Time: Jun 26, 2019 at 2:44:51 pm

Latest Report: Jun 26, 2019 at 2:00 pm


Visibility: N/A

Pressure: 29.86 "Hg

Humidity: 56%

Dew Point: 73 °F

Location of CholomaLocation

Past Weather in Choloma — Graph

°F

Choloma Temperature Yesterday

Maximum temperature yesterday: 95 °F (at 1:00 pm)
Minimum temperature yesterday: 75 °F (at 8:00 pm)
Average temperature yesterday: 83 °F

High & Low Weather Summary for the Past Weeks

 TemperatureHumidityPressure
High97 °F (Jun 17, 2:00 pm)100% (Jun 11, 10:00 pm)29.98 "Hg (Jun 11, 10:00 pm)
Low73 °F (Jun 11, 10:00 pm)39% (Jun 24, 3:00 pm)29.77 "Hg (Jun 16, 3:00 pm)
Average84 °F76%29.89 "Hg
* Reported Jun 11 1:00 pm — Jun 26 1:00 pm, Choloma. Weather by CustomWeather, © 2019

Note: Actual official high and low records may vary slightly from our data, if they occured in-between our weather recording intervals... More about our weather records

Advertising

Choloma Weather History for the Previous 24 Hours

Scroll right to see more
 ConditionsComfort  
Time TempWeatherWind HumidityBarometerVisibility
1:00 pm
Wed, Jun 26
91 °FScattered clouds.12 mph59%29.89 "HgN/A
12:00 pm90 °FScattered clouds.8 mph55%29.92 "HgN/A
11:00 am90 °FScattered clouds.6 mph59%29.92 "HgN/A
10:00 am84 °FScattered clouds.No wind70%29.95 "HgN/A
9:00 am81 °FPartly sunny.2 mph79%29.98 "HgN/A
8:00 am79 °FPartly sunny.3 mph84%29.95 "HgN/A
7:00 am75 °FPartly sunny.5 mph94%29.95 "HgN/A
6:00 am75 °FScattered clouds.3 mph89%29.92 "HgN/A
5:00 am73 °FPassing clouds.2 mph94%29.92 "HgN/A
4:00 am75 °FPassing clouds.2 mph89%29.89 "HgN/A
3:00 am73 °FPassing clouds.2 mph94%29.92 "HgN/A
2:00 am75 °FPassing clouds.6 mph94%29.95 "HgN/A
1:00 am75 °FPassing clouds.3 mph94%29.95 "HgN/A
12:00 am75 °FPassing clouds.2 mph94%29.95 "HgN/A
11:00 pm
Tue, Jun 25
75 °FPassing clouds.3 mph94%29.95 "HgN/A
10:00 pm75 °FPassing clouds.3 mph94%29.95 "HgN/A
9:00 pm75 °FPassing clouds.2 mph89%29.92 "HgN/A
8:00 pm75 °FThunderstorms. Mostly cloudy.9 mph94%29.92 "Hg4 mi
7:00 pm84 °FScattered showers. Partly cloudy.9 mph74%29.89 "Hg5 mi
6:00 pm86 °FScattered clouds.22 mph70%29.83 "HgN/A
5:00 pm88 °FScattered clouds.21 mph59%29.83 "HgN/A
4:00 pm91 °FPassing clouds.21 mph52%29.86 "HgN/A
3:00 pm93 °FScattered clouds.12 mph53%29.83 "HgN/A
2:00 pm93 °FScattered clouds.12 mph56%29.83 "HgN/A
Weather by CustomWeather, © 2019

See weather overview